owner,sensor,date,latitude,longitude,air_temperature,qcFlag 
WAVCIS,ioos:station:WAVCIS:CSI06:1,2009-12-01T00:00:00Z,28.8667,-90.4833,15.57,11111222 
WAVCIS,ioos:station:WAVCIS:CSI06:1,2009-12-01T01:00:00Z,28.8667,-90.4833,14.91,11111222 
WAVCIS,ioos:station:WAVCIS:CSI06:1,2009-12-01T02:00:00Z,28.8667,-90.4833,13.93,11111222 
WAVCIS,ioos:station:WAVCIS:CSI06:1,2009-12-01T03:00:00Z,28.8667,-90.4833,13.66,11111222 
WAVCIS,ioos:station:WAVCIS:CSI06:1,2009-12-01T04:00:00Z,28.8667,-90.4833,13.44,11111222 
WAVCIS,ioos:station:WAVCIS:CSI06:1,2009-12-01T05:00:00Z,28.8667,-90.4833,13.6,11111222 
WAVCIS,ioos:station:WAVCIS:CSI06:1,2009-12-01T06:00:00Z,28.8667,-90.4833,13.69,11111222 
WAVCIS,ioos:station:WAVCIS:CSI06:1,2009-12-01T07:00:00Z,28.8667,-90.4833,13.47,11111222 
WAVCIS,ioos:station:WAVCIS:CSI06:1,2009-12-01T08:00:00Z,28.8667,-90.4833,13.18,11111222 
WAVCIS,ioos:station:WAVCIS:CSI06:1,2009-12-01T09:00:00Z,28.8667,-90.4833,12.91,11111222 
WAVCIS,ioos:station:WAVCIS:CSI06:1,2009-12-01T10:00:00Z,28.8667,-90.4833,12.47,11111222 
WAVCIS,ioos:station:WAVCIS:CSI06:1,2009-12-01T11:00:00Z,28.8667,-90.4833,12.41,11111222 
WAVCIS,ioos:station:WAVCIS:CSI06:1,2009-12-01T12:00:00Z,28.8667,-90.4833,13.15,11111222 
WAVCIS,ioos:station:WAVCIS:CSI06:1,2009-12-01T13:00:00Z,28.8667,-90.4833,13.68,11111222 
WAVCIS,ioos:station:WAVCIS:CSI06:1,2009-12-01T14:00:00Z,28.8667,-90.4833,14.22,11111222 
WAVCIS,ioos:station:WAVCIS:CSI06:1,2009-12-01T15:00:00Z,28.8667,-90.4833,14.13,11111222 
WAVCIS,ioos:station:WAVCIS:CSI06:1,2009-12-01T16:00:00Z,28.8667,-90.4833,13.73,11111222 
WAVCIS,ioos:station:WAVCIS:CSI06:1,2009-12-01T17:00:00Z,28.8667,-90.4833,13.85,11111222 
WAVCIS,ioos:station:WAVCIS:CSI06:1,2009-12-01T18:00:00Z,28.8667,-90.4833,13.83,11111222 
WAVCIS,ioos:station:WAVCIS:CSI06:1,2009-12-01T19:00:00Z,28.8667,-90.4833,14.02,11111222 
WAVCIS,ioos:station:WAVCIS:CSI06:1,2009-12-01T20:00:00Z,28.8667,-90.4833,15.2,11111222 
WAVCIS,ioos:station:WAVCIS:CSI06:1,2009-12-01T21:00:00Z,28.8667,-90.4833,16.04,11111222 
WAVCIS,ioos:station:WAVCIS:CSI06:1,2009-12-01T22:00:00Z,28.8667,-90.4833,17.0,11111222 
WAVCIS,ioos:station:WAVCIS:CSI06:1,2009-12-01T23:00:00Z,28.8667,-90.4833,17.95,11111222 
WAVCIS,ioos:station:WAVCIS:CSI06:1,2009-12-02T00:00:00Z,28.8667,-90.4833,19.26,11111222 
WAVCIS,ioos:station:WAVCIS:CSI06:1,2009-12-02T01:00:00Z,28.8667,-90.4833,12.77,11111222 
WAVCIS,ioos:station:WAVCIS:CSI06:1,2009-12-02T02:00:00Z,28.8667,-90.4833,12.46,11111222 
WAVCIS,ioos:station:WAVCIS:CSI06:1,2009-12-02T03:00:00Z,28.8667,-90.4833,13.38,11111222 
WAVCIS,ioos:station:WAVCIS:CSI06:1,2009-12-02T04:00:00Z,28.8667,-90.4833,14.42,11111222 
WAVCIS,ioos:station:WAVCIS:CSI06:1,2009-12-02T05:00:00Z,28.8667,-90.4833,15.86,11111222 
WAVCIS,ioos:station:WAVCIS:CSI06:1,2009-12-02T06:00:00Z,28.8667,-90.4833,17.62,11111222 
WAVCIS,ioos:station:WAVCIS:CSI06:1,2009-12-02T07:00:00Z,28.8667,-90.4833,20.01,11111222 
WAVCIS,ioos:station:WAVCIS:CSI06:1,2009-12-02T08:00:00Z,28.8667,-90.4833,19.06,11111222 
WAVCIS,ioos:station:WAVCIS:CSI06:1,2009-12-02T09:00:00Z,28.8667,-90.4833,19.21,11111222 
WAVCIS,ioos:station:WAVCIS:CSI06:1,2009-12-02T10:00:00Z,28.8667,-90.4833,15.12,11111222 
WAVCIS,ioos:station:WAVCIS:CSI06:1,2009-12-02T11:00:00Z,28.8667,-90.4833,15.57,11111222 
WAVCIS,ioos:station:WAVCIS:CSI06:1,2009-12-02T12:00:00Z,28.8667,-90.4833,17.4,11111222 
WAVCIS,ioos:station:WAVCIS:CSI06:1,2009-12-02T13:00:00Z,28.8667,-90.4833,16.86,11111222 
WAVCIS,ioos:station:WAVCIS:CSI06:1,2009-12-02T14:00:00Z,28.8667,-90.4833,17.1,11111222 
WAVCIS,ioos:station:WAVCIS:CSI06:1,2009-12-02T15:00:00Z,28.8667,-90.4833,16.4,11111222 
WAVCIS,ioos:station:WAVCIS:CSI06:1,2009-12-02T16:00:00Z,28.8667,-90.4833,14.4,11111222 
WAVCIS,ioos:station:WAVCIS:CSI06:1,2009-12-02T17:00:00Z,28.8667,-90.4833,15.38,11111222 
WAVCIS,ioos:station:WAVCIS:CSI06:1,2009-12-02T18:00:00Z,28.8667,-90.4833,16.5,11111222 
WAVCIS,ioos:station:WAVCIS:CSI06:1,2009-12-02T19:00:00Z,28.8667,-90.4833,17.23,11111222 
WAVCIS,ioos:station:WAVCIS:CSI06:1,2009-12-02T20:00:00Z,28.8667,-90.4833,16.3,11111222 
WAVCIS,ioos:station:WAVCIS:CSI06:1,2009-12-02T21:00:00Z,28.8667,-90.4833,14.84,11111222 
WAVCIS,ioos:station:WAVCIS:CSI06:1,2009-12-02T22:00:00Z,28.8667,-90.4833,14.12,11111222 
WAVCIS,ioos:station:WAVCIS:CSI06:1,2009-12-02T23:00:00Z,28.8667,-90.4833,13.67,11111222 
WAVCIS,ioos:station:WAVCIS:CSI06:1,2009-12-03T00:00:00Z,28.8667,-90.4833,12.36,11111222 
WAVCIS,ioos:station:WAVCIS:CSI06:1,2009-12-03T01:00:00Z,28.8667,-90.4833,11.67,11111222 
WAVCIS,ioos:station:WAVCIS:CSI06:1,2009-12-03T02:00:00Z,28.8667,-90.4833,11.42,11111222 
WAVCIS,ioos:station:WAVCIS:CSI06:1,2009-12-03T03:00:00Z,28.8667,-90.4833,11.13,11111222 
WAVCIS,ioos:station:WAVCIS:CSI06:1,2009-12-03T04:00:00Z,28.8667,-90.4833,10.49,11111222 
WAVCIS,ioos:station:WAVCIS:CSI06:1,2009-12-03T05:00:00Z,28.8667,-90.4833,10.0,11111222 
WAVCIS,ioos:station:WAVCIS:CSI06:1,2009-12-03T06:00:00Z,28.8667,-90.4833,9.8,11111222 
WAVCIS,ioos:station:WAVCIS:CSI06:1,2009-12-03T07:00:00Z,28.8667,-90.4833,9.71,11111222 
WAVCIS,ioos:station:WAVCIS:CSI06:1,2009-12-03T08:00:00Z,28.8667,-90.4833,9.54,11111222 
WAVCIS,ioos:station:WAVCIS:CSI06:1,2009-12-03T09:00:00Z,28.8667,-90.4833,9.33,11111222 
WAVCIS,ioos:station:WAVCIS:CSI06:1,2009-12-03T10:00:00Z,28.8667,-90.4833,9.26,11111222 
WAVCIS,ioos:station:WAVCIS:CSI06:1,2009-12-03T11:00:00Z,28.8667,-90.4833,9.28,11111222 
WAVCIS,ioos:station:WAVCIS:CSI06:1,2009-12-03T12:00:00Z,28.8667,-90.4833,9.08,11111222 
WAVCIS,ioos:station:WAVCIS:CSI06:1,2009-12-03T13:00:00Z,28.8667,-90.4833,8.71,11111222 
WAVCIS,ioos:station:WAVCIS:CSI06:1,2009-12-03T14:00:00Z,28.8667,-90.4833,8.66,11111222 
WAVCIS,ioos:station:WAVCIS:CSI06:1,2009-12-03T15:00:00Z,28.8667,-90.4833,8.38,11111222 
WAVCIS,ioos:station:WAVCIS:CSI06:1,2009-12-03T16:00:00Z,28.8667,-90.4833,8.6,11111222 
WAVCIS,ioos:station:WAVCIS:CSI06:1,2009-12-03T17:00:00Z,28.8667,-90.4833,8.57,11111222 
WAVCIS,ioos:station:WAVCIS:CSI06:1,2009-12-03T18:00:00Z,28.8667,-90.4833,8.73,11111222 
WAVCIS,ioos:station:WAVCIS:CSI06:1,2009-12-03T19:00:00Z,28.8667,-90.4833,9.0,11111222 
WAVCIS,ioos:station:WAVCIS:CSI06:1,2009-12-03T20:00:00Z,28.8667,-90.4833,9.75,11111222 
WAVCIS,ioos:station:WAVCIS:CSI06:1,2009-12-03T21:00:00Z,28.8667,-90.4833,10.28,11111222 
WAVCIS,ioos:station:WAVCIS:CSI06:1,2009-12-03T22:00:00Z,28.8667,-90.4833,10.93,11111222 
WAVCIS,ioos:station:WAVCIS:CSI06:1,2009-12-03T23:00:00Z,28.8667,-90.4833,10.65,11111222 
WAVCIS,ioos:station:WAVCIS:CSI06:1,2009-12-04T00:00:00Z,28.8667,-90.4833,11.47,11111222 
WAVCIS,ioos:station:WAVCIS:CSI06:1,2009-12-04T01:00:00Z,28.8667,-90.4833,11.65,11111222 
WAVCIS,ioos:station:WAVCIS:CSI06:1,2009-12-04T02:00:00Z,28.8667,-90.4833,12.19,11111222 
WAVCIS,ioos:station:WAVCIS:CSI06:1,2009-12-04T03:00:00Z,28.8667,-90.4833,11.92,11111222 
WAVCIS,ioos:station:WAVCIS:CSI06:1,2009-12-04T04:00:00Z,28.8667,-90.4833,11.99,11111222 
WAVCIS,ioos:station:WAVCIS:CSI06:1,2009-12-04T05:00:00Z,28.8667,-90.4833,10.8,11111222 
WAVCIS,ioos:station:WAVCIS:CSI06:1,2009-12-04T06:00:00Z,28.8667,-90.4833,10.5,11111222 
WAVCIS,ioos:station:WAVCIS:CSI06:1,2009-12-04T07:00:00Z,28.8667,-90.4833,10.36,11111222 
WAVCIS,ioos:station:WAVCIS:CSI06:1,2009-12-04T08:00:00Z,28.8667,-90.4833,10.0,11111222 
WAVCIS,ioos:station:WAVCIS:CSI06:1,2009-12-04T09:00:00Z,28.8667,-90.4833,9.71,11111222 
WAVCIS,ioos:station:WAVCIS:CSI06:1,2009-12-04T10:00:00Z,28.8667,-90.4833,9.51,11111222 
WAVCIS,ioos:station:WAVCIS:CSI06:1,2009-12-04T11:00:00Z,28.8667,-90.4833,9.17,11111222 
WAVCIS,ioos:station:WAVCIS:CSI06:1,2009-12-04T12:00:00Z,28.8667,-90.4833,8.74,11111222 
WAVCIS,ioos:station:WAVCIS:CSI06:1,2009-12-04T13:00:00Z,28.8667,-90.4833,8.82,11111222 
WAVCIS,ioos:station:WAVCIS:CSI06:1,2009-12-04T14:00:00Z,28.8667,-90.4833,8.9,11111222 
WAVCIS,ioos:station:WAVCIS:CSI06:1,2009-12-04T15:00:00Z,28.8667,-90.4833,8.94,11111222 
WAVCIS,ioos:station:WAVCIS:CSI06:1,2009-12-04T16:00:00Z,28.8667,-90.4833,9.11,11111222 
WAVCIS,ioos:station:WAVCIS:CSI06:1,2009-12-04T17:00:00Z,28.8667,-90.4833,9.23,11111222 
WAVCIS,ioos:station:WAVCIS:CSI06:1,2009-12-04T18:00:00Z,28.8667,-90.4833,9.96,11111222 
WAVCIS,ioos:station:WAVCIS:CSI06:1,2009-12-04T19:00:00Z,28.8667,-90.4833,9.43,11111222 
WAVCIS,ioos:station:WAVCIS:CSI06:1,2009-12-04T20:00:00Z,28.8667,-90.4833,9.37,11111222 
WAVCIS,ioos:station:WAVCIS:CSI06:1,2009-12-04T21:00:00Z,28.8667,-90.4833,9.41,11111222 
WAVCIS,ioos:station:WAVCIS:CSI06:1,2009-12-04T22:00:00Z,28.8667,-90.4833,9.32,11111222 
WAVCIS,ioos:station:WAVCIS:CSI06:1,2009-12-04T23:00:00Z,28.8667,-90.4833,8.78,11111222 
WAVCIS,ioos:station:WAVCIS:CSI06:1,2009-12-05T00:00:00Z,28.8667,-90.4833,8.05,11111222 
WAVCIS,ioos:station:WAVCIS:CSI06:1,2009-12-05T01:00:00Z,28.8667,-90.4833,6.88,11111222 
WAVCIS,ioos:station:WAVCIS:CSI06:1,2009-12-05T02:00:00Z,28.8667,-90.4833,6.15,11111222 
WAVCIS,ioos:station:WAVCIS:CSI06:1,2009-12-05T03:00:00Z,28.8667,-90.4833,5.599,11111222 
WAVCIS,ioos:station:WAVCIS:CSI06:1,2009-12-05T04:00:00Z,28.8667,-90.4833,5.462,11111222 
WAVCIS,ioos:station:WAVCIS:CSI06:1,2009-12-05T05:00:00Z,28.8667,-90.4833,5.69,11111222 
WAVCIS,ioos:station:WAVCIS:CSI06:1,2009-12-05T06:00:00Z,28.8667,-90.4833,5.489,11111222 
WAVCIS,ioos:station:WAVCIS:CSI06:1,2009-12-05T07:00:00Z,28.8667,-90.4833,5.383,11111222 
WAVCIS,ioos:station:WAVCIS:CSI06:1,2009-12-05T08:00:00Z,28.8667,-90.4833,4.416,11111222 
WAVCIS,ioos:station:WAVCIS:CSI06:1,2009-12-05T09:00:00Z,28.8667,-90.4833,3.714,11111222 
WAVCIS,ioos:station:WAVCIS:CSI06:1,2009-12-05T10:00:00Z,28.8667,-90.4833,3.903,11111222 
WAVCIS,ioos:station:WAVCIS:CSI06:1,2009-12-05T11:00:00Z,28.8667,-90.4833,3.902,11111222 
WAVCIS,ioos:station:WAVCIS:CSI06:1,2009-12-05T12:00:00Z,28.8667,-90.4833,3.832,11111222 
WAVCIS,ioos:station:WAVCIS:CSI06:1,2009-12-05T13:00:00Z,28.8667,-90.4833,3.641,11111222 
WAVCIS,ioos:station:WAVCIS:CSI06:1,2009-12-05T14:00:00Z,28.8667,-90.4833,2.913,11111222 
WAVCIS,ioos:station:WAVCIS:CSI06:1,2009-12-05T15:00:00Z,28.8667,-90.4833,3.213,11111222 
WAVCIS,ioos:station:WAVCIS:CSI06:1,2009-12-05T16:00:00Z,28.8667,-90.4833,3.204,11111222 
WAVCIS,ioos:station:WAVCIS:CSI06:1,2009-12-05T17:00:00Z,28.8667,-90.4833,3.188,11111222 
WAVCIS,ioos:station:WAVCIS:CSI06:1,2009-12-05T18:00:00Z,28.8667,-90.4833,3.562,11111222 
WAVCIS,ioos:station:WAVCIS:CSI06:1,2009-12-05T19:00:00Z,28.8667,-90.4833,4.477,11111222 
WAVCIS,ioos:station:WAVCIS:CSI06:1,2009-12-05T20:00:00Z,28.8667,-90.4833,5.008,11111222 
WAVCIS,ioos:station:WAVCIS:CSI06:1,2009-12-05T21:00:00Z,28.8667,-90.4833,6.04,11111222 
WAVCIS,ioos:station:WAVCIS:CSI06:1,2009-12-05T22:00:00Z,28.8667,-90.4833,6.53,11111222 
WAVCIS,ioos:station:WAVCIS:CSI06:1,2009-12-05T23:00:00Z,28.8667,-90.4833,6.6,11111222 
WAVCIS,ioos:station:WAVCIS:CSI06:1,2009-12-06T00:00:00Z,28.8667,-90.4833,7.12,11111222 
WAVCIS,ioos:station:WAVCIS:CSI06:1,2009-12-06T01:00:00Z,28.8667,-90.4833,7.39,11111222 
WAVCIS,ioos:station:WAVCIS:CSI06:1,2009-12-06T02:00:00Z,28.8667,-90.4833,7.51,11111222 
WAVCIS,ioos:station:WAVCIS:CSI06:1,2009-12-06T03:00:00Z,28.8667,-90.4833,7.59,11111222 
WAVCIS,ioos:station:WAVCIS:CSI06:1,2009-12-06T04:00:00Z,28.8667,-90.4833,7.13,11111222 
WAVCIS,ioos:station:WAVCIS:CSI06:1,2009-12-06T05:00:00Z,28.8667,-90.4833,7.45,11111222 
WAVCIS,ioos:station:WAVCIS:CSI06:1,2009-12-06T06:00:00Z,28.8667,-90.4833,7.9,11111222 
WAVCIS,ioos:station:WAVCIS:CSI06:1,2009-12-06T07:00:00Z,28.8667,-90.4833,8.51,11111222 
WAVCIS,ioos:station:WAVCIS:CSI06:1,2009-12-06T08:00:00Z,28.8667,-90.4833,8.87,11111222 
WAVCIS,ioos:station:WAVCIS:CSI06:1,2009-12-06T09:00:00Z,28.8667,-90.4833,9.39,11111222 
WAVCIS,ioos:station:WAVCIS:CSI06:1,2009-12-06T10:00:00Z,28.8667,-90.4833,8.77,11111222 
WAVCIS,ioos:station:WAVCIS:CSI06:1,2009-12-06T11:00:00Z,28.8667,-90.4833,8.74,11111222 
WAVCIS,ioos:station:WAVCIS:CSI06:1,2009-12-06T12:00:00Z,28.8667,-90.4833,8.87,11111222 
WAVCIS,ioos:station:WAVCIS:CSI06:1,2009-12-06T13:00:00Z,28.8667,-90.4833,10.18,11111222 
WAVCIS,ioos:station:WAVCIS:CSI06:1,2009-12-06T14:00:00Z,28.8667,-90.4833,10.13,11111222 
WAVCIS,ioos:station:WAVCIS:CSI06:1,2009-12-06T15:00:00Z,28.8667,-90.4833,10.32,11111222 
WAVCIS,ioos:station:WAVCIS:CSI06:1,2009-12-06T16:00:00Z,28.8667,-90.4833,13.45,11111222 
WAVCIS,ioos:station:WAVCIS:CSI06:1,2009-12-06T17:00:00Z,28.8667,-90.4833,12.7,11111222 
WAVCIS,ioos:station:WAVCIS:CSI06:1,2009-12-06T18:00:00Z,28.8667,-90.4833,12.17,11111222 
WAVCIS,ioos:station:WAVCIS:CSI06:1,2009-12-06T19:00:00Z,28.8667,-90.4833,13.02,11111222 
WAVCIS,ioos:station:WAVCIS:CSI06:1,2009-12-06T20:00:00Z,28.8667,-90.4833,12.66,11111222 
WAVCIS,ioos:station:WAVCIS:CSI06:1,2009-12-06T21:00:00Z,28.8667,-90.4833,12.99,11111222 
WAVCIS,ioos:station:WAVCIS:CSI06:1,2009-12-06T22:00:00Z,28.8667,-90.4833,13.24,11111222 
WAVCIS,ioos:station:WAVCIS:CSI06:1,2009-12-06T23:00:00Z,28.8667,-90.4833,14.0,11111222 
WAVCIS,ioos:station:WAVCIS:CSI06:1,2009-12-07T00:00:00Z,28.8667,-90.4833,14.71,11111222 
WAVCIS,ioos:station:WAVCIS:CSI06:1,2009-12-07T01:00:00Z,28.8667,-90.4833,15.63,11111222 
WAVCIS,ioos:station:WAVCIS:CSI06:1,2009-12-07T02:00:00Z,28.8667,-90.4833,16.26,11111222 
WAVCIS,ioos:station:WAVCIS:CSI06:1,2009-12-07T03:00:00Z,28.8667,-90.4833,16.51,11111222 
WAVCIS,ioos:station:WAVCIS:CSI06:1,2009-12-07T04:00:00Z,28.8667,-90.4833,17.11,11111222 
WAVCIS,ioos:station:WAVCIS:CSI06:1,2009-12-07T05:00:00Z,28.8667,-90.4833,18.33,11111222 
WAVCIS,ioos:station:WAVCIS:CSI06:1,2009-12-07T06:00:00Z,28.8667,-90.4833,18.55,11111222 
WAVCIS,ioos:station:WAVCIS:CSI06:1,2009-12-07T07:00:00Z,28.8667,-90.4833,18.5,11111222 
WAVCIS,ioos:station:WAVCIS:CSI06:1,2009-12-07T08:00:00Z,28.8667,-90.4833,18.82,11111222 
WAVCIS,ioos:station:WAVCIS:CSI06:1,2009-12-07T09:00:00Z,28.8667,-90.4833,18.78,11111222 
WAVCIS,ioos:station:WAVCIS:CSI06:1,2009-12-07T10:00:00Z,28.8667,-90.4833,18.97,11111222 
WAVCIS,ioos:station:WAVCIS:CSI06:1,2009-12-07T11:00:00Z,28.8667,-90.4833,18.94,11111222 
WAVCIS,ioos:station:WAVCIS:CSI06:1,2009-12-07T12:00:00Z,28.8667,-90.4833,19.28,11111222 
WAVCIS,ioos:station:WAVCIS:CSI06:1,2009-12-07T13:00:00Z,28.8667,-90.4833,19.29,11111222 
WAVCIS,ioos:station:WAVCIS:CSI06:1,2009-12-07T14:00:00Z,28.8667,-90.4833,19.38,11111222 
WAVCIS,ioos:station:WAVCIS:CSI06:1,2009-12-07T15:00:00Z,28.8667,-90.4833,19.43,11111222 
WAVCIS,ioos:station:WAVCIS:CSI06:1,2009-12-07T16:00:00Z,28.8667,-90.4833,19.73,11111222 
WAVCIS,ioos:station:WAVCIS:CSI06:1,2009-12-07T17:00:00Z,28.8667,-90.4833,19.87,11111222 
WAVCIS,ioos:station:WAVCIS:CSI06:1,2009-12-07T18:00:00Z,28.8667,-90.4833,19.84,11111222 
WAVCIS,ioos:station:WAVCIS:CSI06:1,2009-12-07T19:00:00Z,28.8667,-90.4833,19.92,11111222 
WAVCIS,ioos:station:WAVCIS:CSI06:1,2009-12-07T20:00:00Z,28.8667,-90.4833,19.88,11111222 
WAVCIS,ioos:station:WAVCIS:CSI06:1,2009-12-07T21:00:00Z,28.8667,-90.4833,20.11,11111222 
WAVCIS,ioos:station:WAVCIS:CSI06:1,2009-12-07T22:00:00Z,28.8667,-90.4833,19.8,11111222 
WAVCIS,ioos:station:WAVCIS:CSI06:1,2009-12-07T23:00:00Z,28.8667,-90.4833,19.65,11111222 
WAVCIS,ioos:station:WAVCIS:CSI06:1,2009-12-08T00:00:00Z,28.8667,-90.4833,19.68,11111222 
WAVCIS,ioos:station:WAVCIS:CSI06:1,2009-12-08T01:00:00Z,28.8667,-90.4833,19.46,11111222 
WAVCIS,ioos:station:WAVCIS:CSI06:1,2009-12-08T02:00:00Z,28.8667,-90.4833,19.71,11111222 
WAVCIS,ioos:station:WAVCIS:CSI06:1,2009-12-08T03:00:00Z,28.8667,-90.4833,19.68,11111222 
WAVCIS,ioos:station:WAVCIS:CSI06:1,2009-12-08T04:00:00Z,28.8667,-90.4833,19.61,11111222 
WAVCIS,ioos:station:WAVCIS:CSI06:1,2009-12-08T05:00:00Z,28.8667,-90.4833,19.62,11111222 
WAVCIS,ioos:station:WAVCIS:CSI06:1,2009-12-08T06:00:00Z,28.8667,-90.4833,19.56,11111222 
WAVCIS,ioos:station:WAVCIS:CSI06:1,2009-12-08T07:00:00Z,28.8667,-90.4833,19.31,11111222 
WAVCIS,ioos:station:WAVCIS:CSI06:1,2009-12-08T08:00:00Z,28.8667,-90.4833,19.63,11111222 
WAVCIS,ioos:station:WAVCIS:CSI06:1,2009-12-08T09:00:00Z,28.8667,-90.4833,19.62,11111222 
WAVCIS,ioos:station:WAVCIS:CSI06:1,2009-12-08T10:00:00Z,28.8667,-90.4833,20.31,11111222 
WAVCIS,ioos:station:WAVCIS:CSI06:1,2009-12-08T11:00:00Z,28.8667,-90.4833,20.51,11111222 
WAVCIS,ioos:station:WAVCIS:CSI06:1,2009-12-08T12:00:00Z,28.8667,-90.4833,20.48,11111222 
WAVCIS,ioos:station:WAVCIS:CSI06:1,2009-12-08T13:00:00Z,28.8667,-90.4833,20.7,11111222 
WAVCIS,ioos:station:WAVCIS:CSI06:1,2009-12-08T14:00:00Z,28.8667,-90.4833,20.93,11111222 
WAVCIS,ioos:station:WAVCIS:CSI06:1,2009-12-08T15:00:00Z,28.8667,-90.4833,20.5,11111222 
WAVCIS,ioos:station:WAVCIS:CSI06:1,2009-12-08T16:00:00Z,28.8667,-90.4833,20.73,11111222 
WAVCIS,ioos:station:WAVCIS:CSI06:1,2009-12-08T17:00:00Z,28.8667,-90.4833,20.76,11111222 
WAVCIS,ioos:station:WAVCIS:CSI06:1,2009-12-08T18:00:00Z,28.8667,-90.4833,20.65,11111222 
WAVCIS,ioos:station:WAVCIS:CSI06:1,2009-12-08T19:00:00Z,28.8667,-90.4833,20.63,11111222 
WAVCIS,ioos:station:WAVCIS:CSI06:1,2009-12-08T20:00:00Z,28.8667,-90.4833,20.77,11111222 
WAVCIS,ioos:station:WAVCIS:CSI06:1,2009-12-08T21:00:00Z,28.8667,-90.4833,20.85,11111222 
WAVCIS,ioos:station:WAVCIS:CSI06:1,2009-12-08T22:00:00Z,28.8667,-90.4833,20.85,11111222 
WAVCIS,ioos:station:WAVCIS:CSI06:1,2009-12-08T23:00:00Z,28.8667,-90.4833,20.74,11111222 
WAVCIS,ioos:station:WAVCIS:CSI06:1,2009-12-09T00:00:00Z,28.8667,-90.4833,20.81,11111222 
WAVCIS,ioos:station:WAVCIS:CSI06:1,2009-12-09T01:00:00Z,28.8667,-90.4833,20.77,11111222 
WAVCIS,ioos:station:WAVCIS:CSI06:1,2009-12-09T02:00:00Z,28.8667,-90.4833,20.85,11111222 
WAVCIS,ioos:station:WAVCIS:CSI06:1,2009-12-09T03:00:00Z,28.8667,-90.4833,20.91,11111222 
WAVCIS,ioos:station:WAVCIS:CSI06:1,2009-12-09T04:00:00Z,28.8667,-90.4833,20.72,11111222 
WAVCIS,ioos:station:WAVCIS:CSI06:1,2009-12-09T05:00:00Z,28.8667,-90.4833,20.68,11111222 
WAVCIS,ioos:station:WAVCIS:CSI06:1,2009-12-09T06:00:00Z,28.8667,-90.4833,20.53,11111222 
WAVCIS,ioos:station:WAVCIS:CSI06:1,2009-12-09T07:00:00Z,28.8667,-90.4833,20.27,11111222 
WAVCIS,ioos:station:WAVCIS:CSI06:1,2009-12-09T08:00:00Z,28.8667,-90.4833,21.04,11111222 
WAVCIS,ioos:station:WAVCIS:CSI06:1,2009-12-09T09:00:00Z,28.8667,-90.4833,21.02,11111222 
WAVCIS,ioos:station:WAVCIS:CSI06:1,2009-12-09T10:00:00Z,28.8667,-90.4833,20.47,11111222 
WAVCIS,ioos:station:WAVCIS:CSI06:1,2009-12-09T11:00:00Z,28.8667,-90.4833,20.37,11111222 
WAVCIS,ioos:station:WAVCIS:CSI06:1,2009-12-09T12:00:00Z,28.8667,-90.4833,20.47,11111222 
WAVCIS,ioos:station:WAVCIS:CSI06:1,2009-12-09T13:00:00Z,28.8667,-90.4833,21.27,11111222 
WAVCIS,ioos:station:WAVCIS:CSI06:1,2009-12-09T14:00:00Z,28.8667,-90.4833,21.46,11111222 
WAVCIS,ioos:station:WAVCIS:CSI06:1,2009-12-09T15:00:00Z,28.8667,-90.4833,18.28,11111222 
WAVCIS,ioos:station:WAVCIS:CSI06:1,2009-12-09T16:00:00Z,28.8667,-90.4833,17.63,11111222 
WAVCIS,ioos:station:WAVCIS:CSI06:1,2009-12-09T17:00:00Z,28.8667,-90.4833,17.86,11111222 
WAVCIS,ioos:station:WAVCIS:CSI06:1,2009-12-09T18:00:00Z,28.8667,-90.4833,17.75,11111222 
WAVCIS,ioos:station:WAVCIS:CSI06:1,2009-12-09T19:00:00Z,28.8667,-90.4833,19.18,11111222 
WAVCIS,ioos:station:WAVCIS:CSI06:1,2009-12-09T20:00:00Z,28.8667,-90.4833,18.93,11111222 
WAVCIS,ioos:station:WAVCIS:CSI06:1,2009-12-09T21:00:00Z,28.8667,-90.4833,17.93,11111222 
WAVCIS,ioos:station:WAVCIS:CSI06:1,2009-12-09T22:00:00Z,28.8667,-90.4833,17.91,11111222 
WAVCIS,ioos:station:WAVCIS:CSI06:1,2009-12-09T23:00:00Z,28.8667,-90.4833,18.18,11111222 
WAVCIS,ioos:station:WAVCIS:CSI06:1,2009-12-10T00:00:00Z,28.8667,-90.4833,17.79,11111222 
WAVCIS,ioos:station:WAVCIS:CSI06:1,2009-12-10T01:00:00Z,28.8667,-90.4833,17.44,11111222 
WAVCIS,ioos:station:WAVCIS:CSI06:1,2009-12-10T02:00:00Z,28.8667,-90.4833,17.21,11111222 
WAVCIS,ioos:station:WAVCIS:CSI06:1,2009-12-10T03:00:00Z,28.8667,-90.4833,16.81,11111222 
WAVCIS,ioos:station:WAVCIS:CSI06:1,2009-12-10T04:00:00Z,28.8667,-90.4833,15.81,11111222 
WAVCIS,ioos:station:WAVCIS:CSI06:1,2009-12-10T05:00:00Z,28.8667,-90.4833,14.68,11111222 
WAVCIS,ioos:station:WAVCIS:CSI06:1,2009-12-10T06:00:00Z,28.8667,-90.4833,13.57,11111222 
WAVCIS,ioos:station:WAVCIS:CSI06:1,2009-12-10T07:00:00Z,28.8667,-90.4833,12.74,11111222 
WAVCIS,ioos:station:WAVCIS:CSI06:1,2009-12-10T08:00:00Z,28.8667,-90.4833,11.77,11111222 
WAVCIS,ioos:station:WAVCIS:CSI06:1,2009-12-10T09:00:00Z,28.8667,-90.4833,10.68,11111222 
WAVCIS,ioos:station:WAVCIS:CSI06:1,2009-12-10T10:00:00Z,28.8667,-90.4833,10.31,11111222 
WAVCIS,ioos:station:WAVCIS:CSI06:1,2009-12-10T11:00:00Z,28.8667,-90.4833,9.22,11111222 
WAVCIS,ioos:station:WAVCIS:CSI06:1,2009-12-10T12:00:00Z,28.8667,-90.4833,8.79,11111222 
WAVCIS,ioos:station:WAVCIS:CSI06:1,2009-12-10T13:00:00Z,28.8667,-90.4833,8.96,11111222 
WAVCIS,ioos:station:WAVCIS:CSI06:1,2009-12-10T14:00:00Z,28.8667,-90.4833,8.7,11111222 
WAVCIS,ioos:station:WAVCIS:CSI06:1,2009-12-10T15:00:00Z,28.8667,-90.4833,8.84,11111222 
WAVCIS,ioos:station:WAVCIS:CSI06:1,2009-12-10T16:00:00Z,28.8667,-90.4833,8.66,11111222 
WAVCIS,ioos:station:WAVCIS:CSI06:1,2009-12-10T17:00:00Z,28.8667,-90.4833,9.15,11111222 
WAVCIS,ioos:station:WAVCIS:CSI06:1,2009-12-10T18:00:00Z,28.8667,-90.4833,9.46,11111222 
WAVCIS,ioos:station:WAVCIS:CSI06:1,2009-12-10T19:00:00Z,28.8667,-90.4833,9.77,11111222 
WAVCIS,ioos:station:WAVCIS:CSI06:1,2009-12-10T20:00:00Z,28.8667,-90.4833,10.41,11111222 
WAVCIS,ioos:station:WAVCIS:CSI06:1,2009-12-10T21:00:00Z,28.8667,-90.4833,10.65,11111222 
WAVCIS,ioos:station:WAVCIS:CSI06:1,2009-12-10T22:00:00Z,28.8667,-90.4833,10.72,11111222 
WAVCIS,ioos:station:WAVCIS:CSI06:1,2009-12-10T23:00:00Z,28.8667,-90.4833,10.9,11111222 
WAVCIS,ioos:station:WAVCIS:CSI06:1,2009-12-11T00:00:00Z,28.8667,-90.4833,11.13,11111222 
WAVCIS,ioos:station:WAVCIS:CSI06:1,2009-12-11T01:00:00Z,28.8667,-90.4833,11.18,11111222 
WAVCIS,ioos:station:WAVCIS:CSI06:1,2009-12-11T02:00:00Z,28.8667,-90.4833,11.31,11111222 
WAVCIS,ioos:station:WAVCIS:CSI06:1,2009-12-11T03:00:00Z,28.8667,-90.4833,11.87,11111222 
WAVCIS,ioos:station:WAVCIS:CSI06:1,2009-12-11T04:00:00Z,28.8667,-90.4833,11.99,11111222 
WAVCIS,ioos:station:WAVCIS:CSI06:1,2009-12-11T05:00:00Z,28.8667,-90.4833,12.21,11111222 
WAVCIS,ioos:station:WAVCIS:CSI06:1,2009-12-11T06:00:00Z,28.8667,-90.4833,12.35,11111222 
WAVCIS,ioos:station:WAVCIS:CSI06:1,2009-12-11T07:00:00Z,28.8667,-90.4833,12.55,11111222 
WAVCIS,ioos:station:WAVCIS:CSI06:1,2009-12-11T08:00:00Z,28.8667,-90.4833,12.58,11111222 
WAVCIS,ioos:station:WAVCIS:CSI06:1,2009-12-11T09:00:00Z,28.8667,-90.4833,12.57,11111222 
WAVCIS,ioos:station:WAVCIS:CSI06:1,2009-12-11T10:00:00Z,28.8667,-90.4833,12.25,11111222 
WAVCIS,ioos:station:WAVCIS:CSI06:1,2009-12-11T11:00:00Z,28.8667,-90.4833,11.78,11111222 
WAVCIS,ioos:station:WAVCIS:CSI06:1,2009-12-11T12:00:00Z,28.8667,-90.4833,12.41,11111222 
WAVCIS,ioos:station:WAVCIS:CSI06:1,2009-12-11T13:00:00Z,28.8667,-90.4833,12.29,11111222 
WAVCIS,ioos:station:WAVCIS:CSI06:1,2009-12-11T14:00:00Z,28.8667,-90.4833,12.52,11111222 
WAVCIS,ioos:station:WAVCIS:CSI06:1,2009-12-11T15:00:00Z,28.8667,-90.4833,11.68,11111222 
WAVCIS,ioos:station:WAVCIS:CSI06:1,2009-12-11T16:00:00Z,28.8667,-90.4833,10.18,11111222 
WAVCIS,ioos:station:WAVCIS:CSI06:1,2009-12-11T17:00:00Z,28.8667,-90.4833,11.33,11111222 
WAVCIS,ioos:station:WAVCIS:CSI06:1,2009-12-11T18:00:00Z,28.8667,-90.4833,12.23,11111222 
WAVCIS,ioos:station:WAVCIS:CSI06:1,2009-12-11T19:00:00Z,28.8667,-90.4833,12.62,11111222 
WAVCIS,ioos:station:WAVCIS:CSI06:1,2009-12-11T20:00:00Z,28.8667,-90.4833,12.52,11111222 
WAVCIS,ioos:station:WAVCIS:CSI06:1,2009-12-11T21:00:00Z,28.8667,-90.4833,12.77,11111222 
WAVCIS,ioos:station:WAVCIS:CSI06:1,2009-12-11T22:00:00Z,28.8667,-90.4833,12.42,11111222 
WAVCIS,ioos:station:WAVCIS:CSI06:1,2009-12-11T23:00:00Z,28.8667,-90.4833,12.17,11111222 
WAVCIS,ioos:station:WAVCIS:CSI06:1,2009-12-12T00:00:00Z,28.8667,-90.4833,13.01,11111222 
WAVCIS,ioos:station:WAVCIS:CSI06:1,2009-12-12T01:00:00Z,28.8667,-90.4833,13.69,11111222 
WAVCIS,ioos:station:WAVCIS:CSI06:1,2009-12-12T02:00:00Z,28.8667,-90.4833,14.23,11111222 
WAVCIS,ioos:station:WAVCIS:CSI06:1,2009-12-12T03:00:00Z,28.8667,-90.4833,14.87,11111222 
WAVCIS,ioos:station:WAVCIS:CSI06:1,2009-12-12T04:00:00Z,28.8667,-90.4833,15.32,11111222 